Temp
-12 -12 -11 -11 -11 -12 -12 -12 -12 -12 -12 -12 -11 -12 -12 -12 -11 -11 -11 -11 -11 -11 -11 -11 -11 -11 -11 -11 -11 -11 -11 -10 -11 -11 -10 -11 -11 -11 -11 -11 -11 -11 -11 -11
-12 -12 -12 -12 -12 -12 -13 -13 -12 -12 -12 -12 -12 -11 -11 -11 -11 -11 -11 -11 -11 -11 -11 -11 -11 -11 -11 -11 -11 -11 -11 -11 -11 -11 -11 -11 -11 -11 -11 -11 -11 -11 -12 -12
-12 -12 -12 -12 -11 -12 -13 -13 -12 -12 -12 -12 -12 -11 -11 -11 -11 -11 -11 -11 -11 -11 -11 -11 -11 -11 -11 -11 -11 -11 -11 -11 -11 -11 -11 -11 -11 -12 -12 -12 -12 -12 -12 -12
-13 -13 -12 -12 -12 -12 -12 -13 -13 -12 -12 -12 -11 -11 -11 -11 -11 -11 -11 -11 -12 -12 -12 -12 -11 -11 -11 -11 -11 -10 -11 -10 -11 -11 -11 -11 -11 -12 -12 -12 -12 -12 -12 -12
-13 -13 -13 -12 -12 -13 -13 -14 -13 -13 -12 -12 -11 -11 -11 -11 -11 -11 -12 -12 -12 -11 -11 -11 -11 -11 -11 -10 -10 -11 -11 -11 -11 -11 -11 -12 -12 -12 -12 -12 -12 -12 -12 -12
-14 -13 -13 -13 -13 -13 -13 -14 -14 -13 -13 -12 -12 -11 -10 -11 -11 -12 -12 -12 -12 -12 -12 -11 -11 -11 -11 -11 -11 -11 -11 -11 -11 -12 -12 -12 -12 -13 -12 -12 -12 -13 -13 -13
-14 -14 -14 -13 -13 -13 -13 -14 -14 -13 -13 -11 -12 -11 -9 -11 -12 -12 -12 -12 -12 -12 -12 -12 -12 -11 -11 -11 -11 -11 -11 -11 -11 -12 -12 -12 -12 -13 -13 -13 -13 -13 -13 -13
-14 -14 -14 -14 -14 -13 -13 -13 -13 -12 -12 -12 -12 -11 -10 -11 -12 -12 -12 -12 -12 -12 -12 -11 -12 -12 -12 -12 -11 -12 -11 -12 -12 -12 -12 -12 -13 -13 -13 -13 -13 -13 -13 -13
-15 -14 -14 -14 -14 -14 -14 -14 -14 -14 -13 -13 -12 -11 -11 -12 -12 -12 -12 -12 -12 -12 -12 -11 -12 -12 -12 -12 -12 -12 -12 -12 -12 -12 -13 -13 -13 -13 -13 -13 -13 -14 -14 -14
-15 -15 -15 -15 -15 -15 -14 -14 -15 -15 -14 -13 -12 -12 -12 -11 -12 -12 -12 -12 -12 -12 -12 -12 -12 -12 -13 -13 -13 -12 -13 -13 -13 -13 -14 -14 -14 -14 -14 -14 -14 -14 -14 -15
-15 -15 -14 -15 -14 -14 -14 -14 -15 -15 -14 -13 -12 -12 -12 -12 -12 -13 -13 -13 -13 -12 -12 -13 -13 -13 -13 -13 -13 -13 -13 -13 -14 -14 -14 -14 -14 -14 -15 -15 -15 -15 -15 -15
-15 -15 -15 -15 -15 -15 -15 -15 -15 -15 -14 -14 -13 -12 -12 -12 -12 -13 -13 -13 -13 -13 -13 -13 -13 -13 -13 -13 -13 -13 -13 -14 -14 -15 -15 -15 -15 -15 -15 -15 -15 -16 -16 -16
-16 -15 -15 -15 -15 -15 -15 -15 -15 -14 -14 -14 -14 -11 -14 -13 -14 -14 -14 -13 -13 -13 -13 -13 -13 -13 -13 -13 -13 -14 -14 -14 -15 -15 -15 -15 -15 -16 -16 -16 -16 -16 -17 -17
-17 -16 -16 -16 -15 -15 -15 -15 -15 -15 -14 -14 -13 -13 -14 -14 -14 -14 -14 -14 -14 -13 -13 -13 -13 -14 -14 -14 -14 -15 -15 -15 -15 -15 -16 -16 -16 -17 -17 -17 -17 -17 -17 -18
-17 -17 -16 -16 -15 -15 -15 -16 -16 -15 -14 -14 -13 -14 -14 -15 -15 -15 -14 -13 -13 -14 -14 -14 -14 -14 -15 -15 -15 -15 -15 -15 -16 -16 -16 -17 -17 -17 -17 -17 -17 -17 -18 -19
-17 -17 -17 -16 -16 -15 -15 -15 -14 -13 -14 -13 -13 -13 -14 -15 -14 -14 -14 -15 -15 -15 -15 -15 -15 -15 -16 -16 -15 -15 -15 -16 -16 -17 -17 -17 -17 -18 -17 -17 -17 -18 -19 -19
-18 -17 -18 -17 -17 -17 -15 -14 -14 -14 -13 -13 -13 -13 -16 -15 -15 -15 -15 -15 -15 -15 -15 -14 -15 -16 -16 -16 -16 -16 -16 -17 -17 -17 -18 -18 -17 -17 -17 -18 -18 -19 -19 -19
-18 -18 -18 -18 -18 -17 -15 -16 -15 -15 -14 -14 -13 -13 -15 -16 -16 -16 -14 -15 -15 -15 -15 -16 -16 -16 -17 -17 -17 -17 -17 -17 -17 -18 -18 -17 -18 -18 -18 -19 -19 -19 -19 -20
-19 -19 -19 -19 -18 -17 -16 -16 -17 -16 -15 -16 -14 -14 -15 -16 -15 -14 -16 -15 -15 -15 -16 -16 -17 -16 -17 -17 -17 -17 -17 -18 -18 -18 -18 -18 -18 -18 -19 -19 -19 -19 -20 -20
-19 -19 -19 -19 -18 -17 -17 -17 -17 -17 -15 -17 -16 -16 -16 -16 -14 -17 -17 -16 -16 -16 -16 -16 -16 -17 -17 -18 -18 -18 -18 -18 -18 -18 -19 -18 -18 -19 -19 -19 -20 -20 -20 -21
-20 -20 -20 -19 -19 -18 -17 -17 -17 -17 -17 -18 -17 -17 -17 -16 -17 -18 -16 -16 -16 -16 -16 -16 -17 -17 -17 -18 -18 -18 -18 -18 -19 -19 -19 -19 -19 -20 -20 -20 -20 -21 -21 -21
-21 -21 -21 -20 -19 -18 -17 -17 -17 -18 -18 -18 -18 -17 -17 -17 -17 -17 -17 -17 -16 -17 -17 -17 -17 -17 -18 -18 -18 -18 -18 -19 -19 -19 -19 -19 -20 -20 -20 -20 -20 -21 -21 -21
-21 -21 -21 -21 -19 -19 -19 -18 -18 -18 -19 -19 -19 -18 -18 -18 -17 -17 -18 -17 -17 -17 -17 -17 -18 -18 -18 -18 -19 -19 -19 -19 -19 -19 -20 -20 -20 -20 -21 -21 -21 -21 -22 -22
-22 -22 -22 -21 -20 -20 -20 -19 -19 -20 -20 -20 -19 -19 -18 -18 -18 -17 -17 -17 -17 -18 -18 -18 -18 -18 -19 -19 -19 -19 -19 -20 -20 -20 -20 -21 -21 -21 -21 -21 -22 -22 -22 -23
-23 -23 -22 -22 -21 -20 -21 -21 -20 -20 -20 -20 -20 -19 -19 -18 -18 -18 -18 -18 -18 -18 -18 -18 -18 -19 -19 -19 -19 -20 -20 -20 -20 -20 -21 -21 -21 -21 -21 -21 -22 -22 -23 -23
-24 -23 -23 -23 -22 -21 -22 -21 -21 -21 -21 -20 -20 -20 -20 -19 -18 -18 -18 -18 -18 -18 -19 -19 -19 -19 -19 -20 -20 -20 -21 -21 -21 -21 -21 -21 -21 -21 -22 -22 -22 -23 -23 -23
Height
5716 5726 5735 5746 5755 5764 5773 5779 5785 5792 5796 5801 5805 5808 5812 5817 5821 5825 5828 5829 5832 5836 5838 5839 5840 5842 5842 5841 5841 5841 5840 5839 5838 5837 5834 5832 5829 5827 5824 5821 5818 5815 5812 5809
5711 5722 5732 5739 5748 5759 5765 5771 5778 5785 5789 5794 5799 5803 5805 5809 5816 5819 5820 5824 5828 5831 5833 5834 5836 5836 5836 5836 5835 5834 5833 5832 5831 5829 5826 5824 5822 5819 5817 5814 5811 5808 5805 5802
5710 5719 5723 5728 5738 5748 5756 5764 5771 5778 5782 5786 5792 5797 5800 5805 5809 5811 5815 5818 5821 5824 5826 5828 5829 5829 5829 5828 5827 5826 5825 5824 5823 5821 5819 5817 5815 5812 5809 5807 5805 5801 5798 5795
5698 5709 5715 5722 5733 5741 5749 5758 5764 5771 5776 5780 5786 5790 5794 5798 5802 5804 5809 5812 5813 5815 5819 5820 5820 5820 5819 5819 5819 5819 5818 5818 5816 5814 5812 5810 5808 5806 5803 5801 5799 5796 5793 5789
5694 5703 5712 5718 5728 5734 5742 5750 5758 5764 5768 5773 5778 5782 5788 5791 5796 5800 5804 5804 5807 5808 5809 5810 5812 5813 5813 5813 5812 5812 5812 5812 5811 5809 5807 5804 5802 5799 5797 5794 5791 5789 5785 5781
5688 5697 5705 5715 5720 5726 5733 5742 5749 5755 5760 5763 5772 5774 5781 5784 5791 5796 5798 5800 5801 5801 5801 5803 5804 5806 5805 5806 5806 5806 5805 5805 5803 5801 5799 5796 5793 5791 5789 5787 5784 5781 5777 5772
5681 5689 5698 5707 5711 5718 5727 5733 5739 5745 5750 5753 5763 5766 5772 5780 5784 5789 5792 5794 5795 5794 5794 5796 5797 5798 5798 5798 5798 5798 5797 5796 5794 5792 5790 5787 5785 5783 5781 5779 5776 5772 5767 5763
5675 5685 5692 5698 5706 5717 5722 5727 5732 5737 5742 5748 5755 5757 5764 5775 5778 5783 5786 5787 5787 5787 5787 5789 5789 5790 5790 5790 5790 5790 5789 5787 5785 5783 5781 5779 5777 5775 5773 5770 5766 5762 5758 5754
5668 5677 5685 5692 5700 5708 5713 5718 5726 5732 5737 5742 5747 5753 5759 5765 5771 5774 5778 5779 5779 5779 5781 5782 5782 5782 5783 5783 5783 5782 5780 5778 5776 5774 5772 5770 5769 5767 5764 5760 5756 5753 5750 5746
5664 5671 5678 5685 5692 5698 5706 5715 5717 5722 5727 5732 5739 5744 5750 5755 5762 5765 5768 5770 5770 5772 5773 5774 5774 5775 5775 5775 5774 5772 5771 5769 5767 5764 5763 5762 5760 5758 5755 5751 5747 5744 5740 5737
5659 5666 5672 5678 5684 5692 5698 5703 5709 5717 5722 5724 5729 5736 5743 5746 5750 5757 5759 5760 5763 5764 5765 5766 5766 5767 5766 5765 5764 5763 5760 5758 5757 5755 5754 5752 5750 5747 5744 5741 5738 5734 5731 5728
5654 5660 5665 5672 5676 5683 5689 5695 5703 5708 5713 5717 5721 5727 5732 5738 5742 5745 5749 5751 5753 5755 5756 5757 5757 5756 5755 5754 5753 5752 5750 5748 5747 5745 5744 5742 5740 5737 5734 5731 5727 5724 5722 5719
5646 5653 5658 5664 5671 5675 5681 5689 5694 5698 5704 5708 5714 5720 5723 5725 5730 5732 5736 5741 5743 5744 5745 5746 5746 5745 5744 5743 5741 5740 5738 5737 5736 5735 5733 5731 5729 5726 5724 5721 5719 5717 5714 5711
5636 5644 5653 5661 5670 5673 5677 5682 5687 5691 5697 5701 5707 5710 5715 5717 5720 5723 5726 5727 5729 5731 5733 5734 5734 5733 5732 5731 5730 5729 5728 5727 5726 5724 5723 5721 5719 5718 5716 5715 5712 5710 5706 5704
5630 5638 5643 5649 5655 5660 5665 5669 5675 5681 5689 5692 5702 5702 5705 5707 5708 5710 5712 5716 5719 5720 5721 5720 5720 5720 5721 5720 5720 5719 5718 5717 5716 5715 5714 5712 5711 5709 5707 5705 5702 5700 5697 5695
5622 5630 5635 5640 5644 5650 5655 5662 5669 5674 5676 5681 5685 5692 5695 5695 5698 5701 5703 5705 5708 5708 5708 5709 5710 5711 5710 5709 5709 5707 5708 5707 5706 5706 5705 5705 5703 5702 5699 5697 5694 5691 5690 5687
5616 5623 5627 5633 5636 5638 5646 5657 5660 5663 5667 5672 5676 5684 5684 5685 5688 5690 5693 5694 5695 5696 5698 5700 5700 5700 5701 5699 5700 5700 5700 5700 5699 5698 5698 5697 5694 5691 5690 5688 5685 5683 5681 5678
5611 5616 5621 5625 5626 5630 5644 5644 5649 5653 5657 5661 5666 5670 5671 5675 5678 5679 5681 5682 5686 5688 5689 5689 5690 5691 5691 5692 5692 5692 5692 5692 5692 5690 5688 5686 5685 5685 5683 5679 5677 5676 5672 5668
5603 5608 5614 5617 5623 5631 5634 5639 5641 5642 5651 5650 5654 5658 5659 5662 5665 5671 5673 5676 5676 5677 5678 5681 5682 5683 5684 5684 5685 5684 5684 5685 5682 5682 5681 5679 5679 5677 5674 5672 5670 5666 5662 5658
5595 5599 5605 5609 5615 5622 5628 5631 5632 5636 5645 5644 5646 5650 5651 5653 5658 5666 5663 5665 5668 5668 5671 5673 5675 5676 5677 5676 5676 5676 5677 5674 5674 5673 5671 5671 5670 5668 5666 5663 5659 5656 5652 5647
5588 5591 5593 5600 5605 5617 5622 5624 5625 5631 5640 5636 5640 5644 5646 5651 5654 5653 5658 5661 5662 5663 5664 5666 5667 5668 5667 5669 5669 5669 5668 5668 5665 5664 5663 5662 5660 5658 5656 5653 5648 5645 5641 5635
5576 5581 5585 5591 5598 5608 5612 5613 5619 5623 5626 5629 5633 5637 5640 5643 5646 5648 5650 5652 5652 5654 5657 5658 5659 5660 5660 5661 5661 5661 5661 5659 5657 5655 5653 5651 5650 5647 5644 5641 5636 5632 5627 5621
5567 5570 5575 5582 5593 5595 5596 5601 5606 5611 5616 5620 5624 5629 5632 5636 5639 5642 5644 5645 5646 5648 5649 5650 5651 5651 5652 5654 5653 5652 5651 5649 5648 5646 5643 5642 5641 5638 5633 5630 5624 5619 5613 5608
5552 5558 5564 5572 5581 5583 5586 5589 5593 5599 5604 5610 5617 5620 5623 5627 5630 5632 5635 5637 5638 5638 5641 5640 5642 5643 5643 5644 5644 5643 5641 5639 5637 5636 5633 5630 5628 5625 5620 5616 5610 5606 5600 5595
5541 5546 5555 5562 5569 5571 5575 5579 5582 5586 5592 5599 5605 5609 5613 5617 5619 5622 5625 5627 5627 5629 5631 5631 5631 5632 5633 5632 5633 5632 5631 5629 5627 5623 5620 5618 5614 5610 5605 5601 5596 5592 5585 5580
5533 5540 5545 5552 5554 5559 5564 5567 5573 5577 5582 5587 5594 5599 5604 5607 5611 5613 5615 5617 5619 5619 5621 5622 5622 5621 5622 5621 5621 5620 5619 5615 5614 5611 5607 5603 5600 5596 5591 5586 5582 5577 5570 5564
Wind_Speed
65 69 59 56 56 50 47 47 45 42 45 40 35 36 31 34 33 30 28 29 29 26 25 23 21 20 21 21 24 27 30 32 34 35 36 35 35 35 37 39 39 38 38 37
67 56 62 60 55 57 52 49 47 47 40 37 37 31 31 32 30 29 30 28 26 25 24 23 23 23 25 28 32 35 36 36 38 36 34 35 35 37 39 39 38 37 36 37
56 62 60 67 63 59 56 50 50 48 43 39 35 36 39 34 32 31 28 26 26 24 25 26 29 32 35 36 36 36 36 37 37 34 35 35 37 39 40 38 37 36 36 37
47 45 65 69 64 58 51 52 49 46 42 43 41 40 42 37 34 33 30 29 30 31 29 31 31 32 35 36 36 37 38 35 33 35 37 40 42 43 42 40 40 39 39 40
44 41 50 58 58 59 58 56 52 49 48 47 46 45 44 42 40 36 32 33 32 33 32 32 33 33 32 34 35 35 33 32 34 38 41 43 44 44 43 42 41 41 41 43
43 44 48 53 60 60 59 58 55 53 51 52 48 49 43 43 38 36 36 34 33 36 36 36 35 35 32 31 31 32 34 35 37 40 42 44 45 45 43 42 42 43 44 46
46 42 48 52 57 58 59 60 59 57 56 54 52 52 44 42 42 37 36 35 38 40 41 39 36 36 34 33 34 35 37 39 41 43 44 44 43 42 42 43 43 45 47 49
46 44 46 51 57 55 57 58 59 58 54 52 50 51 48 41 39 37 37 39 41 42 41 40 38 37 35 35 36 38 40 42 44 46 45 45 43 43 43 44 46 48 49 49
48 47 49 48 43 43 51 57 54 53 53 51 51 49 47 44 42 40 39 39 39 38 38 37 37 37 37 38 40 41 45 46 47 47 46 46 45 44 45 46 47 48 48 47
39 39 48 51 46 45 47 51 54 54 54 54 53 51 49 48 45 42 40 39 39 37 38 38 39 39 39 41 43 44 47 50 49 47 47 46 45 45 46 47 47 47 46 43
45 37 41 48 50 47 46 47 50 51 53 52 52 49 47 47 47 42 41 39 38 39 39 39 39 41 44 45 46 48 49 47 46 45 46 45 44 44 44 46 46 44 42 41
47 39 46 44 45 51 50 48 47 47 50 51 52 50 51 49 46 45 41 41 41 41 39 40 41 44 47 49 51 51 47 45 44 44 44 45 46 47 45 44 41 39 40 41
46 51 42 41 53 47 50 50 48 49 49 50 51 50 51 52 48 47 44 42 42 42 42 44 47 48 49 52 48 45 44 42 41 41 43 44 44 43 40 38 38 40 39 40
45 42 46 42 40 45 46 46 47 48 47 47 43 38 40 43 42 43 44 45 46 49 48 47 48 50 47 41 39 39 40 42 42 42 41 40 38 35 36 39 39 40 40 40
48 41 39 39 41 43 47 49 52 54 52 52 44 41 38 40 43 45 47 48 50 49 49 50 52 48 41 35 34 37 39 39 38 36 36 35 31 35 37 39 40 38 40 35
47 47 48 46 47 45 48 47 45 44 51 52 49 45 47 49 52 51 51 51 50 53 54 53 48 43 36 34 36 38 36 35 33 32 29 30 33 38 39 37 39 40 36 37
40 43 41 46 47 51 47 39 46 44 43 42 41 35 42 50 52 51 51 51 52 49 47 43 37 34 34 36 37 36 32 29 27 29 31 33 38 37 39 39 40 37 37 42
38 39 41 43 42 47 42 46 44 47 46 47 45 44 43 41 40 43 45 45 41 38 35 32 31 28 25 21 20 21 24 27 28 30 35 39 40 38 39 38 37 37 43 47
43 42 40 40 38 39 39 38 37 40 38 40 44 44 44 43 44 45 33 27 31 29 29 26 16 12 17 21 24 24 25 29 32 35 37 36 38 38 37 35 38 42 44 47
47 44 42 41 39 35 31 32 29 33 33 34 35 35 36 38 41 15 25 27 20 17 12 12 15 18 21 25 27 27 29 30 33 37 38 36 37 35 36 40 43 45 50 54
44 46 42 45 46 40 35 33 36 34 31 28 28 28 26 22 23 29 25 17 18 12 11 12 14 17 20 22 20 25 28 32 35 35 36 35 35 38 42 45 48 51 53 57
48 42 43 47 50 48 42 40 41 36 33 32 26 26 26 25 28 28 24 24 21 17 15 14 15 18 20 22 23 26 29 33 36 37 36 37 40 44 48 51 51 53 56 59
52 51 48 51 51 48 47 47 46 46 38 36 33 32 30 32 32 32 31 29 22 19 18 18 21 23 24 26 29 29 32 33 36 38 39 44 50 50 50 51 55 57 59 60
50 49 47 49 52 51 51 49 48 47 40 40 34 31 33 33 32 33 32 29 26 23 25 24 27 27 28 30 33 36 37 37 38 41 43 45 49 53 56 58 58 58 59 61
50 49 46 45 53 57 52 53 55 49 50 43 43 39 38 36 34 35 36 35 33 31 34 32 32 32 35 35 37 40 42 42 45 46 47 49 52 55 58 61 60 60 59 61
48 48 45 41 50 56 53 55 55 49 45 45 48 40 41 40 39 40 41 42 41 38 38 39 39 39 41 40 41 43 45 46 50 50 51 52 55 59 60 58 58 58 59 61
Wind_Direction
204 206 206 213 221 222 220 216 219 222 224 221 217 225 229 227 226 231 233 235 237 239 242 246 250 254 260 268 277 280 284 288 290 290 291 292 293 295 298 298 297 298 299 302
203 207 215 226 224 222 210 212 216 221 221 226 215 218 228 232 233 233 232 235 236 235 238 244 251 257 265 274 278 278 279 285 293 295 293 295 299 304 305 304 302 302 302 302
208 214 214 212 220 208 210 210 214 218 217 220 221 223 231 234 233 236 240 245 254 255 256 265 270 271 273 274 274 277 284 292 298 298 297 299 303 306 307 305 304 304 304 305
214 207 213 216 212 209 212 208 210 213 217 222 228 229 227 227 228 236 242 255 264 267 268 269 274 277 275 275 279 283 288 292 298 299 299 301 302 303 304 301 303 304 304 304
221 218 210 210 212 215 210 207 209 214 218 220 222 227 224 227 230 236 245 252 259 265 268 271 271 276 277 276 278 281 284 289 294 295 297 297 297 299 298 296 299 302 302 302
220 212 215 209 214 211 207 208 210 212 215 220 222 230 222 230 234 235 242 253 258 262 264 268 270 275 274 277 280 282 286 292 293 294 296 297 295 294 293 294 297 299 300 299
216 224 214 204 204 208 211 207 210 213 217 220 223 229 232 227 233 238 245 252 256 259 262 264 266 268 271 276 278 282 287 290 291 293 294 294 293 291 290 293 295 296 296 297
221 224 221 213 211 212 210 211 216 216 218 225 228 230 237 237 235 237 242 250 255 259 260 262 265 266 269 273 276 280 285 286 287 289 290 289 288 287 288 290 292 293 294 295
227 231 229 220 224 231 223 217 218 220 225 230 233 234 241 243 242 245 246 250 253 253 256 259 262 265 268 272 276 280 283 283 285 287 285 283 283 284 286 288 290 292 293 294
220 225 222 222 228 232 234 229 224 225 229 233 236 238 242 244 244 246 250 253 251 255 258 261 263 265 269 272 276 280 283 283 284 283 281 281 283 285 288 290 292 292 292 292
224 226 228 228 229 230 231 233 234 234 236 241 243 242 243 247 251 248 247 251 251 258 259 263 266 269 271 274 276 284 285 282 282 281 280 280 282 285 287 289 289 288 287 289
230 222 229 230 230 230 233 236 239 243 244 246 250 251 254 251 251 254 254 249 253 260 261 265 269 273 274 278 282 284 280 279 279 279 278 281 282 284 285 283 281 282 287 289
223 222 224 227 227 226 229 234 237 238 239 243 246 252 252 256 254 256 255 255 260 265 267 270 270 274 276 282 283 280 278 278 278 279 280 281 281 280 279 278 283 285 289 290
214 221 232 236 239 231 230 235 235 236 239 244 249 254 254 255 254 253 256 258 263 266 268 274 278 281 284 283 279 277 277 277 278 279 278 277 276 277 280 284 286 288 287 289
213 216 220 225 231 230 230 229 233 237 244 247 248 250 254 253 255 257 259 266 271 276 278 278 281 282 283 280 278 275 274 277 275 275 276 280 281 278 279 279 281 284 283 284
214 215 218 219 221 225 228 233 238 239 240 243 248 251 248 250 256 260 263 266 270 273 275 278 279 280 275 274 272 272 273 270 270 275 275 279 277 279 278 280 279 281 280 287
217 218 220 221 224 227 224 235 237 240 242 246 250 254 249 250 254 259 264 266 267 269 274 277 275 269 268 267 269 271 270 271 272 269 271 275 274 273 276 280 281 279 282 288
218 223 224 226 227 226 228 228 231 234 238 242 243 245 251 253 253 253 256 259 267 269 266 263 260 263 265 271 275 274 274 271 270 268 267 265 269 278 280 281 280 281 284 288
220 225 230 232 235 230 227 232 239 243 242 247 245 248 250 251 252 258 261 258 256 250 247 249 244 257 252 254 258 261 263 261 265 269 270 273 280 279 280 277 282 289 291 294
220 224 227 229 233 233 222 226 235 241 237 244 244 243 244 244 251 235 215 227 225 214 215 241 254 252 252 253 258 261 263 269 271 273 275 276 281 281 279 283 288 293 295 297
220 220 223 228 233 236 237 240 243 243 242 243 243 238 239 237 218 223 237 227 214 223 237 257 262 263 264 265 265 266 270 270 273 278 281 283 278 279 286 292 294 295 298 299
213 216 224 223 229 231 235 237 243 241 238 238 239 238 239 237 232 233 214 218 219 228 237 251 260 256 257 266 264 267 272 275 277 277 278 279 282 284 287 289 292 294 294 295
214 215 218 225 225 225 228 227 235 241 230 229 231 232 234 235 235 233 222 218 222 238 239 250 248 255 261 258 257 264 270 273 277 276 277 282 288 291 292 292 293 294 295 298
214 212 219 223 223 226 229 234 235 234 230 226 223 224 223 227 225 226 224 222 230 233 235 242 248 254 260 259 259 262 267 273 275 278 282 284 288 290 292 292 295 297 299 299
232 222 216 221 224 226 225 228 238 236 233 224 227 228 228 227 229 230 232 230 231 234 236 243 249 255 258 262 264 263 267 273 276 279 280 283 285 286 287 291 295 297 298 299
243 236 228 222 226 224 226 228 230 234 233 230 231 231 239 237 236 239 242 239 237 237 241 246 251 255 261 266 267 268 270 275 277 279 280 284 288 289 292 294 297 298 300 301